Location: Breitenbrunn
(49.4860°N, 11.7477°E)
Time: 11:56:30
(UTC+00:00)

Daily predictions for brighter satellites

Satellite Brightness Start Highest point End
(mag) Time Altitude Azimuth Time Altitude Azimuth Time Altitude Azimuth
Cosmos 1992 Rocket 4.0 18:15:09 10° NNW 18:20:25 80° ENE 18:25:36 10° SSE
Cosmos 1437 3.4 18:18:58 10° N 18:21:45 32° ENE 18:24:30 10° SE
Cosmos 1953 2.7 18:18:40 10° SSE 18:22:25 43° E 18:26:14 10° NNE
Cosmos 2228 4.2 18:20:22 10° SE 18:23:46 23° E 18:27:13 10° NE
Cosmos 1818 4.3 18:21:06 10° S 18:25:50 32° ESE 18:30:36 10° NE
Cosmos 2263 4.2 18:22:19 10° NNW 18:27:57 74° ENE 18:33:33 10° SE
STARLINK-1269 4.3 18:24:09 10° W 18:28:12 53° N 18:32:17 10° ENE
Meteor 2-15 Rocket 4.4 18:26:02 10° S 18:32:04 73° E 18:38:09 10° NNE
Cosmos 1470 3.1 18:28:43 10° SSW 18:32:35 71° W 18:36:32 10° N
STARLINK-1200 4.3 18:29:09 10° W 18:33:12 52° N 18:37:16 10° ENE
ERBS 4.3 18:30:46 10° NW 18:33:31 22° N 18:36:16 10° ENE
Cosmos 1943 3.5 18:29:04 10° S 18:34:25 45° ESE 18:39:49 10° NE
SL-08 RB Rocket 4.0 18:30:08 10° SE 18:34:31 49° ENE 18:38:59 10° N
ARGOS Delta rocket 4.3 18:30:26 10° S 18:35:43 81° W 18:41:14 10° NNW
Aureole 2 Rocket 3.3 18:33:11 10° NNW 18:36:36 50° WSW 18:39:55 10° S
STARLINK-1192 4.3 18:34:08 10° W 18:38:12 52° N 18:42:15 10° ENE
BREEZE-M DEB (TANK) 2.6 18:32:56 10° SW 18:38:44 47° SSE 18:41:06 11° E
CZ-2C R/B 2.8 18:34:12 10° SSE 18:39:06 79° ENE 18:43:52 10° NNW
Cosmos 1461 4.1 18:35:26 10° NNW 18:39:32 34° NE 18:43:27 11° ESE
CZ-4C R/B 4.3 18:37:49 10° NW 18:42:46 24° N 18:48:27 10° ENE
STARLINK-1244 4.3 18:39:09 10° W 18:43:12 51° N 18:47:15 10° ENE
STARLINK-1138 4.3 18:44:08 10° W 18:48:11 51° N 18:52:15 10° ENE
H-2A R/B 2.2 18:43:39 10° S 18:48:53 79° WSW 18:54:00 10° NNW
NOSS 3-4 (A) 3.9 18:45:16 10° NW 18:52:07 68° NE 18:58:54 13° SE
NOSS 3-4 (C) 3.9 18:45:22 10° NW 18:52:13 68° NE 18:58:59 13° SE
ADEOS Rocket 4.3 18:46:50 10° N 18:53:05 46° WNW 18:58:43 10° SW
STARLINK-1143 4.3 18:49:06 10° WNW 18:53:09 51° N 18:57:14 10° ENE
Cosmos 1656 Rocket 3.7 18:48:15 10° NNW 18:53:57 78° ENE 18:59:33 10° SSE
CZ-2C R/B 3.2 18:52:30 10° NNE 18:57:10 33° E 19:01:48 10° SSE
SL-16 R/B 3.9 18:52:34 10° WSW 18:57:47 37° NW 19:03:04 10° NNE
STARLINK-1241 4.3 18:54:08 10° WNW 18:58:12 51° N 19:02:02 11° ENE
STARLINK-1228 3.3 18:55:38 10° WNW 18:58:27 48° NNE 19:00:22 17° E
Resurs 1-3 3.8 18:55:40 10° SSE 18:59:56 53° ENE 19:04:14 10° N
Aureole 1 Rocket 4.5 18:53:23 10° S 19:00:29 44° ESE 19:06:14 10° NE
NOSS 3-3 (A) 3.9 18:56:29 10° SW 19:02:24 85° SE 19:09:10 10° NE
NOSS 3-3 (C) 3.9 18:56:35 10° SW 19:02:30 85° SE 19:09:15 10° NE
MetOp-A 4.1 18:57:18 10° SSE 19:02:37 69° ENE 19:07:58 10° N
Cosmos 1726 2.1 18:59:15 10° S 19:02:59 88° ESE 19:06:45 10° N
Cosmos 2251 Rocket 3.8 18:57:46 10° SSW 19:03:08 75° WNW 19:08:34 10° NNE
STARLINK-1239 4.3 18:59:08 10° WNW 19:03:11 51° N 19:06:49 13° ENE
ARGOS 3.5 18:59:19 10° S 19:04:41 70° WSW 19:10:05 10° NNW
Cosmos 2184 Rocket 4.1 18:59:26 10° N 19:05:47 87° W 19:12:02 10° S
ISS -1.1 19:05:36 10° WSW 19:07:17 13° SW 19:08:59 10° SSW
STARLINK-60 4.3 19:05:18 10° S 19:07:52 21° SE 19:07:54 21° SE
SJ-6B 3.3 19:04:04 10° S 19:08:10 67° WSW 19:12:19 10° NNW
STARLINK-1240 4.3 19:04:08 10° WNW 19:08:12 51° N 19:11:37 14° ENE
STARLINK-1233 3.5 19:06:12 10° WNW 19:09:16 48° N 19:11:11 20° E
STARLINK-1212 3.5 19:06:40 10° WNW 19:09:44 48° NNE 19:11:36 20° E
STARLINK-1105 3.5 19:07:06 10° WNW 19:10:11 49° N 19:12:03 21° E
STARLINK-1206 3.5 19:07:37 10° WNW 19:10:39 48° NNE 19:12:28 21° E
STARLINK-1247 3.5 19:08:03 10° WNW 19:11:07 49° NNE 19:12:54 21° E
BREEZE M DEB (TANK) 4.1 19:08:35 10° S 19:11:25 21° ESE 19:16:59 10° ENE
STARLINK-1227 3.5 19:08:27 10° WNW 19:11:32 49° NNE 19:13:21 21° E
Meteor 2-10 4.2 19:06:27 10° SSW 19:11:55 86° W 19:17:37 10° NNE
STARLINK-1218 3.5 19:08:58 10° WNW 19:12:01 49° NNE 19:13:47 22° E
STARLINK-1226 3.5 19:09:24 10° WNW 19:12:27 49° NNE 19:14:12 22° E
STARLINK-1254 3.5 19:09:49 10° WNW 19:12:54 50° NNE 19:14:38 22° E
STARLINK-1216 4.3 19:09:09 10° WNW 19:13:12 51° N 19:16:24 16° ENE
USA 186 3.4 19:10:08 10° SSW 19:13:14 36° W 19:16:16 10° NNW
STARLINK-1215 3.5 19:10:19 10° WNW 19:13:22 49° NNE 19:15:04 22° E
STARLINK-1231 3.5 19:10:46 10° WNW 19:13:49 50° NNE 19:15:30 23° E
STARLINK-67 2.4 19:11:15 10° WNW 19:13:50 67° NNE 19:14:43 35° E
DMSP B5D2-2 4.2 19:09:21 10° NNE 19:14:29 53° E 19:19:35 10° S
STARLINK-1232 3.5 19:11:40 10° WNW 19:14:44 50° NNE 19:16:22 23° E
STARLINK-1217 3.5 19:12:07 10° WNW 19:15:11 50° NNE 19:16:48 23° E
STARLINK-1208 3.5 19:12:31 10° WNW 19:15:36 50° NNE 19:17:15 23° E
STARLINK-1229 3.4 19:13:01 10° WNW 19:16:04 50° NNE 19:17:39 24° E
STARLINK-1271 3.4 19:13:27 10° WNW 19:16:32 51° NNE 19:18:06 24° E
STARLINK-1234 3.2 19:13:35 10° WNW 19:16:35 56° NNE 19:17:59 27° E
Cosmos 1980 Rocket 4.5 19:15:08 10° N 19:16:54 11° NNE 19:18:40 10° NE
STARLINK-1270 3.4 19:13:56 10° WNW 19:16:59 51° NNE 19:18:33 25° ENE
STARLINK-1154 3.4 19:14:21 10° WNW 19:17:25 51° NNE 19:18:57 25° ENE
Terra 3.9 19:16:09 11° ENE 19:17:43 13° NE 19:19:47 10° NNE
STARLINK-1237 4.2 19:14:07 10° WNW 19:18:11 52° N 19:21:10 17° ENE
STARLINK-1197 3.4 19:15:16 10° WNW 19:18:20 51° NNE 19:19:50 25° ENE
STARLINK-1189 3.4 19:15:43 10° WNW 19:18:47 51° NNE 19:20:16 26° ENE
STARLINK-1198 3.4 19:16:10 10° WNW 19:19:14 52° NNE 19:20:42 26° ENE
STARLINK-1209 3.0 19:16:29 10° WNW 19:19:26 59° NNE 19:20:37 31° E
STARLINK-1188 3.4 19:16:37 10° WNW 19:19:41 52° NNE 19:21:08 26° ENE
Cosmos 1603 4.0 19:14:32 10° SW 19:20:10 72° WNW 19:25:48 10° NNE
STARLINK-1235 3.2 19:17:16 10° WNW 19:20:23 58° NNE 19:21:46 29° E
STARLINK-1187 3.3 19:17:41 10° WNW 19:20:48 55° NNE 19:22:12 28° E
Cosmos 2058 Rocket 3.3 19:16:54 10° SSE 19:21:15 49° E 19:25:37 10° NNE
STARLINK-1199 3.4 19:18:34 10° WNW 19:21:40 53° NNE 19:23:03 28° ENE
STARLINK-1191 3.4 19:19:01 10° WNW 19:22:07 53° NNE 19:23:29 28° ENE
MOS 1 Rocket 3.7 19:17:02 10° NNE 19:22:19 57° E 19:27:40 10° S
STARLINK-1210 3.4 19:19:28 10° WNW 19:22:34 53° NNE 19:23:55 28° ENE
STARLINK-1221 3.4 19:19:55 10° WNW 19:23:01 53° NNE 19:24:21 29° ENE
STARLINK-1202 4.2 19:19:07 10° WNW 19:23:10 52° N 19:25:56 19° ENE
STARLINK-1219 3.4 19:20:22 10° WNW 19:23:28 54° NNE 19:24:47 29° ENE
USA 234 3.7 19:17:48 10° ENE 19:23:46 36° SE 19:29:41 10° SSW
STARLINK-1222 3.3 19:20:49 10° WNW 19:23:55 54° NNE 19:25:13 29° ENE
STARLINK-1211 3.3 19:21:16 10° WNW 19:24:23 54° NNE 19:25:39 30° ENE
ATLAS 2AS CENTAUR R/B 2.9 19:16:55 10° NW 19:24:38 84° SW 19:29:59 19° SE
Resurs 01 Rocket 1.6 19:21:42 19° SSE 19:24:47 67° ENE 19:29:12 10° N
STARLINK-1214 3.3 19:21:44 10° WNW 19:24:49 54° NNE 19:26:05 30° ENE
STARLINK-1245 3.3 19:22:12 10° WNW 19:25:17 54° NNE 19:26:30 31° ENE
STARLINK-1238 3.3 19:22:37 10° WNW 19:25:43 55° NNE 19:26:57 31° ENE
STARLINK-1205 3.3 19:23:32 10° WNW 19:26:38 55° NNE 19:27:48 32° ENE
STARLINK-1204 3.3 19:24:01 10° WNW 19:27:06 55° NNE 19:28:14 32° ENE
STARLINK-1203 4.2 19:23:18 10° WNW 19:27:26 54° N 19:30:00 21° ENE
Cosmos 2154 Rocket 4.0 19:21:38 10° N 19:28:03 89° ENE 19:34:23 10° S
Meteor 1-16 Rocket 4.4 19:23:58 10° SSW 19:29:21 74° WNW 19:34:57 10° N
SeaSat 1 4.5 19:25:18 10° NNE 19:29:35 30° NW 19:33:51 10° WSW
Iridium 4 Rocket 4.3 19:27:18 10° NNE 19:30:38 22° ENE 19:30:54 22° E
Cosmos 1190 Rocket 4.1 19:25:57 10° S 19:31:04 51° ESE 19:36:12 10° NNE
Cosmos 962 Rocket 4.5 19:25:17 10° N 19:31:26 63° ENE 19:35:47 20° SSE
Nadezhda 1 Rocket 4.0 19:25:49 10° S 19:32:13 85° E 19:38:36 10° N
Cosmos 1140 Rocket 3.7 19:27:30 10° S 19:32:25 46° ESE 19:37:21 10° NE
SL-4 R/B 1.7 19:29:40 10° SW 19:32:58 50° SSE 19:33:43 41° ESE
STARLINK-1246 4.2 19:29:06 10° WNW 19:33:10 54° N 19:35:30 24° ENE
Spot 2 Rocket 3.9 19:31:32 26° SE 19:34:06 48° ENE 19:39:00 10° N
Cosmos 1726 Rocket 3.6 19:30:12 10° S 19:34:37 83° WNW 19:39:05 10° N
SL-8 Rocket 4.3 19:29:13 10° N 19:35:19 47° ENE 19:38:40 25° SE
STARLINK-1201 3.3 19:32:10 10° WNW 19:35:25 59° NNE 19:36:24 38° ENE
Cosmos 1340 Rocket 2.7 19:32:48 13° S 19:36:21 65° E 19:40:21 10° NNE
STARLINK-1224 4.1 19:34:05 10° WNW 19:38:10 55° N 19:40:16 26° ENE
ATLAS 5 CENTAUR R/B 1.9 19:34:22 10° S 19:38:15 39° ESE 19:42:35 10° NE
SL-24 R/B - RUBIN 2 4.3 19:36:22 10° SSW 19:41:50 56° ESE 19:47:59 10° NE
STARLINK-1225 4.1 19:39:06 10° WNW 19:43:12 56° N 19:45:04 29° ENE
Cosmos 1703 4.5 19:41:06 10° NNW 19:44:51 42° W 19:48:35 10° SSW
Cosmos 2366 rocket 4.3 19:41:01 10° N 19:46:54 45° ENE 19:49:25 30° SE
STARLINK-1230 4.0 19:44:05 10° WNW 19:48:11 57° N 19:49:52 32° ENE
Cosmos 614 Rocket 4.0 19:44:10 10° SSW 19:49:25 85° WNW 19:54:40 10° NNE
Cosmos 1300 2.8 19:50:48 50° ESE 19:51:06 52° E 19:54:50 10° NNE
Cosmos 2369 Rocket 4.4 19:47:12 10° NW 19:51:25 22° W 19:55:36 10° SSW
Abrixas rocket 2.2 19:49:41 10° W 19:52:19 58° SW 19:52:19 58° SW
STARLINK-1243 4.0 19:49:02 10° WNW 19:53:09 59° NNE 19:54:37 36° ENE
COSMOS 2455 2.8 19:47:43 10° NW 19:53:49 84° ENE 19:56:40 33° SE
IGS 5A 3.8 19:53:17 41° E 19:53:55 45° ENE 19:57:55 10° N
Cosmos 921 Rocket 2.9 19:51:35 10° NNW 19:55:48 82° WSW 19:57:11 41° S
Cosmos 1812 Rocket 4.4 19:56:43 32° ENE 19:56:43 32° ENE 20:00:07 10° NNE
STARLINK-1236 3.9 19:54:03 10° WNW 19:58:10 60° NNE 19:59:26 40° ENE
Cosmos 676 Rocket 4.1 19:56:21 24° S 19:59:22 54° ESE 20:04:30 10° NNE
Cosmos 407 Rocket 3.5 19:55:36 10° SSW 20:00:46 81° WNW 20:05:56 10° NNE
Cosmos 2228 4.4 19:57:04 10° SW 20:01:06 39° WNW 20:05:12 10° N
STARLINK-1269 3.8 20:04:02 10° WNW 20:08:10 64° NNE 20:09:00 50° ENE
ERS-1 Rocket 3.3 20:07:39 42° ESE 20:08:38 49° ENE 20:13:29 10° N
Cosmos 1818 4.2 20:03:50 10° WSW 20:09:11 56° NW 20:14:34 10° NE
ATLAS CENTAUR R/B 3.4 20:07:44 10° NNW 20:10:21 17° NNE 20:11:25 15° NE
ERBS 3.2 20:07:15 10° NW 20:10:29 41° NNE 20:10:29 41° NNE
Landsat 7 3.7 20:11:38 52° SE 20:12:43 74° ENE 20:17:30 10° N
STARLINK-1200 3.8 20:09:01 10° WNW 20:13:10 66° NNE 20:13:47 56° ENE
SPOT 1/Viking Rocket 3.5 20:14:31 49° SE 20:15:53 71° ENE 20:21:07 10° N
Cosmos 220 Rocket 3.9 20:13:12 10° NNW 20:17:31 67° ENE 20:17:46 65° E
MetOp-B 4.3 20:15:08 32° S 20:17:39 70° WSW 20:23:02 10° NNW
STARLINK-1192 3.7 20:14:00 10° WNW 20:18:08 68° NNE 20:18:33 63° ENE
Cosmos 1461 3.8 20:14:26 10° NW 20:18:47 47° WSW 20:19:51 39° SSW
STARLINK-1244 3.6 20:18:59 10° WNW 20:23:08 71° NNE 20:23:20 69° NE
Cosmos 1954 Rocket 3.8 20:21:03 28° SSW 20:23:53 81° ESE 20:29:08 10° NNE
SAR-Lupe-2 4.1 20:22:37 10° N 20:26:09 56° WNW 20:26:39 50° WSW
STARLINK-1138 3.6 20:23:57 10° WNW 20:28:06 74° NNE 20:28:06 74° NNE
STARLINK-1143 3.7 20:28:54 10° WNW 20:32:52 74° NNW 20:32:52 74° NNW
Cosmos 2151 3.9 20:29:07 10° N 20:32:13 35° NE 20:32:13 35° NE
CZ-4C R/B 3.8 20:26:59 10° NW 20:33:11 38° NNE 20:37:08 24° E
Cosmos 1697 Rocket 3.5 20:29:13 10° NNW 20:34:29 37° NE 20:35:27 35° ENE
Cosmos 1076 Rocket 3.4 20:30:46 10° NNW 20:35:03 83° W 20:35:03 83° W
SPOT 5 2.7 20:36:47 65° NE 20:36:47 65° NE 20:40:48 10° N
CZ-2C R/B 3.8 20:32:44 10° N 20:37:32 40° WNW 20:42:20 10° SW
STARLINK-1241 3.8 20:33:55 10° WNW 20:37:41 70° NW 20:37:41 70° NW
Iridium 2 4.3 20:42:00 54° WNW 20:42:00 54° WNW 20:45:33 10° N
STARLINK-1239 3.9 20:38:53 10° WNW 20:42:27 64° NW 20:42:27 64° NW
Cosmos 2058 3.2 20:40:30 10° NNW 20:44:18 64° WNW 20:44:18 64° WNW
SL-16 R/B 4.4 20:44:40 10° N 20:47:47 15° NNE 20:50:30 11° ENE
STARLINK-1240 4.1 20:43:53 10° WNW 20:47:15 57° WNW 20:47:15 57° WNW
Cosmos 1763 Rocket 3.3 20:44:14 10° NNW 20:49:28 81° ENE 20:49:35 80° E
STARLINK-1216 4.3 20:48:52 10° WNW 20:52:02 51° WNW 20:52:02 51° WNW
Cosmos 1408 4.1 20:49:59 10° N 20:52:05 32° N 20:52:05 32° N
Terra 1.9 20:55:02 70° NNE 20:55:02 70° NNE 20:59:25 10° N
Cosmos-2242 4.3 20:57:02 32° NNE 20:57:02 32° NNE 20:59:31 10° NNE
USA 32 3.9 20:50:23 10° N 20:55:38 80° ENE 20:55:38 80° ENE
RESURS DK-1 3.4 20:53:21 10° NNW 20:56:27 41° N 20:56:27 41° N
Cosmos 2322 Rocket 4.5 20:54:39 10° N 20:57:43 15° NNE 21:00:20 11° ENE
Cosmos 1174 4.4 20:54:33 10° NW 20:57:56 61° WNW 20:57:56 61° WNW
Cosmos 2218 Rocket 4.5 20:54:13 10° NNW 21:00:15 55° W 21:02:26 37° SSW
Cosmos 1455 4.2 21:03:41 23° NNE 21:03:41 23° NNE 21:05:14 10° NNE
Resurs 01 Rocket 4.2 20:59:15 10° SW 21:01:45 15° W 21:04:23 10° NW
Cosmos 1980 Rocket 3.1 20:57:37 10° NNW 21:02:44 35° NE 21:03:10 34° ENE
Cosmos 1892 3.9 20:58:58 10° NNW 21:01:53 41° NW 21:01:53 41° NW
Cosmos 540 Rocket 3.8 20:59:42 10° NNW 21:04:25 55° NE 21:04:25 55° NE
USA 234 3.2 21:00:39 10° ENE 21:07:13 85° NNW 21:13:46 10° WSW
Okean 3 Rocket 4.3 21:04:54 10° N 21:08:14 51° N 21:08:14 51° N
CARTOSAT-1 4.3 21:10:07 49° WNW 21:10:07 49° WNW 21:13:46 10° NNW
Cosmos 1656 3.6 21:04:52 10° NNW 21:10:36 85° WSW 21:10:37 85° SW
Iridium 4 Rocket 4.2 21:06:52 10° NNW 21:10:42 37° W 21:10:42 37° W
Cosmos 1850 Rocket 4.3 21:13:06 59° NNE 21:13:06 59° NNE 21:17:19 10° NNE
ATLAS 2AS CENTAUR R/B 4.5 21:09:10 10° WNW 21:14:29 22° WSW 21:17:26 17° SW
Cosmos 1825 4.0 21:14:33 10° N 21:16:32 29° NNW 21:16:32 29° NNW
Cosmos 1766 Rocket 4.5 21:16:46 10° N 21:20:00 47° NNW 21:20:00 47° NNW
ATLAS 5 CENTAUR R/B 3.0 21:18:48 10° WSW 21:22:53 38° NW 21:27:31 10° NE
Cosmos 841 Rocket 3.7 21:19:35 10° NNW 21:24:13 69° NNW 21:24:13 69° NNW
Cosmos 2278 4.0 21:20:18 10° NNW 21:25:34 56° NE 21:25:34 56° NE
Cosmos 2082 Rocket 4.0 21:33:29 20° NE 21:33:29 20° NE 21:35:25 10° NE
Cosmos 1570 Rocket 4.3 21:25:07 10° NNW 21:29:51 63° WNW 21:29:51 63° WNW
Mayak 0.7 21:28:54 10° NNE 21:30:35 23° NNE 21:30:35 23° NNE
ASTEX 1 4.0 21:39:12 53° N 21:39:12 53° N 21:43:01 10° N
Nadezhda 3 Rocket 4.0 21:43:48 75° W 21:44:00 75° W 21:50:19 10° N
COSMOS 2406 3.5 21:45:30 62° NNE 21:45:30 62° NNE 21:50:16 10° NNE
Cosmos 1833 Rocket 3.7 21:47:50 36° NE 21:47:50 36° NE 21:51:12 10° NNE
Cosmos 1535 Rocket 4.5 21:43:15 10° N 21:48:58 78° N 21:48:58 78° N
ATLAS CENTAUR R/B 3.6 21:46:04 10° NW 21:47:36 22° NNW 21:47:36 22° NNW
Thor Agena Rocket 4.4 21:58:55 10° NNE 22:02:20 44° N 22:02:20 44° N
Cosmos 2369 4.4 22:01:27 10° NW 22:05:45 47° WNW 22:05:45 47° WNW
Cosmos 1697 Rocket 3.7 22:13:11 10° NW 22:17:11 38° WNW 22:17:11 38° WNW
CZ-4C R/B 2.8 22:15:24 10° NW 22:22:18 83° W 22:22:18 83° W
Cosmos 1934 Rocket 4.5 22:16:50 10° NNW 22:22:23 52° WNW 22:22:23 52° WNW
Terra 4.2 22:33:54 15° WNW 22:33:54 15° WNW 22:35:48 10° NW
SL-16 R/B 3.1 22:27:49 10° NNW 22:32:21 45° NNE 22:32:21 45° NNE
Cosmos 1605 Rocket 4.4 22:27:27 10° NNW 22:32:34 58° NW 22:32:34 58° NW
Cosmos 2360 Rocket 3.6 22:34:34 10° NNW 22:39:29 29° NE 22:39:34 29° NE
Cosmos 2322 Rocket 3.1 22:37:43 10° NNW 22:42:08 44° NNE 22:42:08 44° NNE
Cosmos 1980 Rocket 3.4 22:41:32 10° NW 22:44:56 34° WNW 22:44:56 34° WNW
Cosmos 2333 Rocket 4.5 22:43:32 10° N 22:47:24 18° NE 22:49:56 14° ENE
USA 234 4.0 22:43:40 10° ENE 22:49:56 50° N 22:56:11 10° W
Mayak 1.5 23:05:47 10° NNW 23:07:09 14° NW 23:07:09 14° NW
ATLAS 5 CENTAUR R/B 4.4 23:05:37 10° NW 23:08:56 18° N 23:12:34 10° NE
Cosmos 2082 Rocket 3.2 23:15:17 43° NNW 23:15:17 43° NNW 23:19:49 10° NNE
Cosmos 2344 4.5 23:08:03 10° NW 23:17:33 61° WSW 23:18:38 59° SW
Cosmos 2061 Rocket 4.4 23:13:05 10° N 23:18:10 60° N 23:18:10 60° N
Cosmos 1833 Rocket 4.2 23:29:28 27° NW 23:30:00 28° NW 23:34:49 10° NNE
SL-16 R/B 3.9 23:29:18 28° E 23:30:37 30° ENE 23:35:54 10° N
Cosmos 2219 Rocket 3.6 23:34:22 10° NNW 23:39:20 31° NE 23:40:11 29° ENE
Cosmos 1607 4.4 23:48:19 54° NNW 23:48:19 54° NNW 23:53:58 10° NE
COSMOS 2428 4.0 23:46:44 10° NNW 23:51:57 35° NE 23:52:47 33° ENE
Cosmos 2322 4.5 23:47:14 10° NNW 23:52:06 49° NNE 23:52:06 49° NNE
